Location: Blue Mountain Vista Observatory
(40.6992°N, 75.9422°W)
Time: 10:51:41
(UTC-05:00)

Amateur Radio Satellites - All Passes

Search period start: 09 February 2016 10:21
Search period end: 10 February 2016 10:21
Location: Blue Mountain Vista Observatory, 40.6992°N, 75.9422°W

Satellite Date Start Highest point End Downlink Frequencies (MHz)
Time Altitude Azimuth
DX 1 09 Feb 10:22:31 10:24:27 13° 91° (E) 10:26:22 434.975-435.025
DELFI C3 09 Feb 10:30:56 10:34:39 36° 288° (WNW) 10:38:23 145.870
Cosmos 2499 09 Feb 10:37:47 10:46:21 62° 282° (WNW) 10:55:11 435.465 / 435.565
POLYITAN 1 09 Feb 10:42:16 10:46:30 83° 257° (WSW) 10:50:45 437.675
QB50P2 09 Feb 10:42:57 10:47:11 80° 258° (WSW) 10:51:27 145.880/145.840
GONETS M04 09 Feb 10:47:12 10:54:13 27° 293° (WNW) 11:01:17
BUGSAT 1 09 Feb 10:49:08 10:53:15 55° 74° (ENE) 10:57:20 437.445
50 SAT 09 Feb 10:52:14 10:55:38 30° 97° (E) 10:59:01 437.505
JAS-2 09 Feb 10:54:40 10:57:04 12° 55° (NE) 10:59:24 435.910
ZACube-1 09 Feb 11:04:47 11:06:47 13° 296° (WNW) 11:08:48 437.345
CUSAT 1 09 Feb 11:07:58 11:08:31 10° 54° (NE) 11:09:05 437.405
ANTELSAT 09 Feb 11:09:32 11:10:46 11° 270° (W) 11:12:00 437.575/2403.000
VELOX 1 09 Feb 11:12:42 11:16:56 43° 99° (E) 11:21:07 145.980
POPSAT HIP 1 09 Feb 11:13:17 11:17:14 37° 262° (W) 11:21:11 437.405
FUNcube-1 09 Feb 11:15:01 11:16:09 11° 297° (WNW) 11:17:17 145.935
NANOSAT C BR1 09 Feb 11:18:34 11:22:24 33° 263° (W) 11:26:15 145.865
DUCHIFAT 1 09 Feb 11:20:19 11:24:08 33° 263° (W) 11:27:59 145.980
QB50P1 09 Feb 11:26:25 11:30:02 27° 264° (W) 11:33:38 145.935-145.965
HUMSAT D 09 Feb 11:28:30 11:31:43 22° 292° (WNW) 11:34:57 437.325/437.525
AISAT 09 Feb 11:29:07 11:33:33 70° 102° (ESE) 11:37:55 437.250
PCSat 09 Feb 11:30:33 11:35:51 56° 303° (WNW) 11:41:13 145.827
DANDE 09 Feb 11:33:12 11:36:26 13° 54° (NE) 11:39:20 436.750
UKube-1 09 Feb 11:45:48 11:50:09 87° 291° (WNW) 11:54:28 .
ESTCUBE 1 09 Feb 11:48:15 11:52:46 67° 286° (WNW) 11:57:15 437.505/2401.250
AIST 1 09 Feb 11:48:47 11:51:55 19° 288° (WNW) 11:55:04
CUBEBUG 1 09 Feb 11:50:52 11:55:15 83° 283° (WNW) 11:59:35 437.445
RS-15 09 Feb 11:51:19 12:02:25 84° 120° (ESE) 12:14:12 29.354- 29.394
SPROUT 09 Feb 11:56:25 12:00:26 39° 98° (E) 12:04:24 437.525
DX 1 09 Feb 11:56:43 12:00:59 56° 287° (WNW) 12:05:13 434.975-435.025
AO-85 09 Feb 11:58:36 12:03:01 25° 316° (NW) 12:07:32 145.980
TISAT 1 09 Feb 12:08:44 12:11:44 19° 94° (E) 12:14:42 437.305
SO-50 09 Feb 12:09:58 12:12:21 13° 36° (NE) 12:14:41 436.795
Oscar 19 09 Feb 12:12:59 12:17:57 48° 71° (ENE) 12:22:55 437.125/150
50 SAT 09 Feb 12:26:49 12:29:27 18° 293° (WNW) 12:32:04 437.505
BUGSAT 1 09 Feb 12:27:16 12:28:57 12° 269° (W) 12:30:38 437.445
AO-7 09 Feb 12:33:08 12:36:29 13° 44° (NE) 12:39:50 29.400- 29.500
JAS-2 09 Feb 12:33:22 12:40:54 61° 72° (ENE) 12:47:50 435.910
Cosmos 2499 09 Feb 12:38:11 12:41:31 12° 304° (NW) 12:44:53 435.465 / 435.565
Gurwin Techsat 1B 09 Feb 12:39:15 12:43:56 33° 67° (ENE) 12:48:38 435.225
CUSAT 1 09 Feb 12:46:23 12:52:26 79° 80° (E) 12:56:54 437.405
VELOX 1 09 Feb 12:50:06 12:53:04 18° 295° (WNW) 12:56:02 145.980
AISAT 09 Feb 13:07:53 13:09:26 12° 299° (WNW) 13:10:59 437.250
DANDE 09 Feb 13:13:52 13:21:06 78° 80° (E) 13:26:31 436.750
PCSat 09 Feb 13:18:59 13:20:29 11° 324° (NW) 13:22:01 145.827
ITAMSAT 1 09 Feb 13:20:34 13:25:24 41° 70° (ENE) 13:30:17 435.822/435.867
SWISSCUBE 09 Feb 13:26:30 13:30:37 28° 96° (E) 13:34:42 437.505
SPROUT 09 Feb 13:33:12 13:36:07 18° 294° (WNW) 13:39:01 437.525
YUBILEINY 09 Feb 13:33:55 13:42:07 40° 72° (ENE) 13:50:13 435.215
Cosmos 2491 09 Feb 13:41:18 13:47:14 21° 79° (E) 13:53:09 435.465 / 435.565
TISAT 1 09 Feb 13:43:43 13:47:30 34° 289° (WNW) 13:51:15 437.305
SO-50 09 Feb 13:48:53 13:53:43 75° 56° (ENE) 13:58:22 436.795
Oscar 19 09 Feb 13:53:44 13:57:30 20° 267° (W) 14:01:17 437.125/150
ITUPSAT 1 09 Feb 14:02:34 14:07:20 57° 101° (E) 14:12:04 437.325
RS-15 09 Feb 14:06:19 14:16:21 35° 326° (NW) 14:26:56 29.354- 29.394
BEESAT 09 Feb 14:11:23 14:16:12 73° 102° (ESE) 14:20:59 436.000
Gurwin Techsat 1B 09 Feb 14:19:09 14:23:50 31° 264° (W) 14:28:32 435.225
AO-7 09 Feb 14:19:21 14:27:27 57° 65° (ENE) 14:35:34 29.400- 29.500
JAS-2 09 Feb 14:19:51 14:26:08 27° 266° (W) 14:32:05 435.910
KKS-1 09 Feb 14:24:59 14:27:01 13° 91° (E) 14:29:02 437.445
CUSAT 1 09 Feb 14:32:07 14:33:14 11° 284° (WNW) 14:34:17 437.405
ISS 09 Feb 14:44:48 14:46:26 13° 130° (SE) 14:48:05 145.825
HORYU 2 09 Feb 14:48:53 14:52:25 24° 67° (ENE) 14:55:57 437.375
DANDE 09 Feb 14:59:00 15:02:39 15° 283° (WNW) 15:05:55 436.750
ITAMSAT 1 09 Feb 15:00:54 15:05:01 24° 266° (W) 15:09:09 435.822/435.867
SWISSCUBE 09 Feb 15:04:10 15:08:23 31° 292° (WNW) 15:12:35 437.505
M-CUBED/EXP-1 PRIME 09 Feb 15:15:37 15:19:19 75° 253° (WSW) 15:22:47 437.505
AUBIESAT-1 09 Feb 15:25:54 15:29:33 68° 253° (WSW) 15:33:01 437.475
Cosmos 2504 09 Feb 15:28:11 15:36:23 45° 74° (ENE) 15:44:03 435.465 / 435.565
YUBILEINY 09 Feb 15:30:43 15:38:58 45° 272° (W) 15:47:09 435.215
SO-50 09 Feb 15:31:38 15:33:30 12° 254° (WSW) 15:35:21 436.795
Cosmos 2491 09 Feb 15:34:16 15:43:00 79° 278° (W) 15:51:45 435.465 / 435.565
ITUPSAT 1 09 Feb 15:41:44 15:44:41 16° 297° (WNW) 15:47:38 437.325
STARS 09 Feb 15:43:50 15:48:06 51° 100° (E) 15:52:21 437.465
MOZHAYETS 4 09 Feb 15:49:25 15:53:51 43° 98° (E) 15:58:17
BEESAT 09 Feb 15:51:10 15:53:22 13° 299° (WNW) 15:55:35 436.000
KKS-1 09 Feb 15:59:35 16:03:56 56° 287° (WNW) 16:08:16 437.445
AO-7 09 Feb 16:13:14 16:20:31 33° 263° (W) 16:27:52 29.400- 29.500
ISS 09 Feb 16:19:17 16:22:30 65° 324° (NW) 16:25:44 145.825
HORYU 2 09 Feb 16:24:54 16:28:49 31° 263° (W) 16:32:47 437.375
RS-15 09 Feb 16:25:33 16:33:56 21° 1° (N) 16:42:34 29.354- 29.394
CUBESAT XI-V 09 Feb 16:31:01 16:32:45 12° 89° (E) 16:34:28 437.345
O/OREOS (USA 219) 09 Feb 16:34:29 16:37:14 15° 54° (NE) 16:39:57 437.305
CUTE-I 09 Feb 16:34:50 16:39:11 26° 65° (ENE) 16:43:34 437.470
LilacSat-2 09 Feb 16:36:30 16:38:45 15° 67° (ENE) 16:41:00 437.200
BEESAT 3 09 Feb 16:42:07 16:45:44 35° 115° (ESE) 16:49:24 437.485
Cubesat XI-IV 09 Feb 16:47:56 16:52:41 34° 68° (ENE) 16:57:28 437.490
GOMX 1 09 Feb 17:01:32 17:03:58 13° 62° (ENE) 17:06:21 467.674
BEESAT 2 09 Feb 17:05:25 17:09:11 40° 116° (ESE) 17:12:58 435.950
AO-85 09 Feb 17:11:34 17:12:40 11° 30° (NNE) 17:13:45 145.980
STARS 09 Feb 17:21:32 17:24:03 15° 296° (WNW) 17:26:34 437.465
Cosmos 2504 09 Feb 17:21:51 17:29:36 39° 274° (W) 17:36:53 435.465 / 435.565
MOZHAYETS 4 09 Feb 17:27:25 17:30:42 19° 295° (WNW) 17:33:59
BRITE-PL 09 Feb 17:28:11 17:33:33 44° 71° (ENE) 17:38:48 437.365/2234.400
Cosmos 2491 09 Feb 17:36:29 17:41:23 16° 300° (WNW) 17:46:18 435.465 / 435.565
ISS 09 Feb 17:57:17 17:59:27 16° 344° (NNW) 18:01:38 145.825
CUBESAT XI-V 09 Feb 18:05:55 18:10:36 68° 285° (WNW) 18:15:15 437.345
LilacSat-2 09 Feb 18:09:12 18:12:46 37° 262° (W) 18:16:20 437.200
O/OREOS (USA 219) 09 Feb 18:12:31 18:17:02 60° 251° (WSW) 18:21:34 437.305
CUTE-I 09 Feb 18:14:03 18:19:01 40° 262° (W) 18:24:02 437.470
DOVE 4 09 Feb 18:19:50 18:24:28 36° 71° (ENE) 18:28:54 437.250
BEESAT 3 09 Feb 18:20:24 18:23:35 22° 313° (NW) 18:26:46 437.485
Cubesat XI-IV 09 Feb 18:28:07 18:32:44 30° 264° (W) 18:37:25 437.490
GOMX 1 09 Feb 18:35:56 18:41:23 85° 258° (WSW) 18:46:37 467.674
PCSat 09 Feb 18:36:15 18:40:02 19° 44° (NE) 18:43:48 145.827
STRAND 1 09 Feb 18:37:29 18:42:04 31° 96° (E) 18:46:37 437.568
RS-15 09 Feb 18:40:42 18:51:31 36° 35° (NE) 19:02:30 29.354- 29.394
BEESAT 2 09 Feb 18:44:11 18:47:14 20° 314° (NW) 18:50:18 435.950
CANX-2 09 Feb 18:48:07 18:51:43 28° 70° (ENE) 18:55:21 2200.000
AO-85 09 Feb 18:49:35 18:54:36 47° 51° (NE) 18:59:11 145.980
HO-68 09 Feb 18:50:49 18:57:40 50° 66° (ENE) 19:04:31 435.675
AIST 2 09 Feb 18:57:29 19:01:37 66° 119° (ESE) 19:05:46 435.215
GONETS M04 09 Feb 18:59:04 19:06:46 33° 70° (ENE) 19:14:27
BRITE-PL 09 Feb 19:07:24 19:12:05 26° 266° (W) 19:16:44 437.365/2234.400
CINEMA 3 09 Feb 19:16:51 19:21:17 46° 73° (ENE) 19:25:33 145.822/145.860
CUBEBUG 2 09 Feb 19:27:11 19:30:23 21° 68° (ENE) 19:33:32 437.445
UWE-3 09 Feb 19:29:20 19:31:52 16° 66° (ENE) 19:34:23 435.000/436.395/437.385
Oscar 11 09 Feb 19:30:40 19:33:08 15° 64° (ENE) 19:35:36 145.826/435.025
COMPASS 1 09 Feb 19:31:41 19:35:35 42° 73° (ENE) 19:39:32 437.405
ISS 09 Feb 19:35:28 19:36:55 12° 5° (N) 19:38:24 145.825
CUTE 1.7 + AOD 2 09 Feb 19:38:06 19:42:18 88° 249° (WSW) 19:46:33 437.475
SEEDS 09 Feb 19:45:01 19:49:11 84° 77° (ENE) 19:53:24 437.485
DELFI C3 09 Feb 19:45:29 19:45:57 10° 63° (ENE) 19:46:26 145.870
PRISM 09 Feb 19:49:32 19:53:38 51° 100° (E) 19:57:40 437.425
DOVE 4 09 Feb 19:57:57 20:02:10 26° 265° (W) 20:06:15 437.250
AAUSAT CUBESAT 2 09 Feb 20:00:24 20:04:29 75° 78° (ENE) 20:08:40 437.432
STRAND 1 09 Feb 20:16:39 20:21:10 31° 293° (WNW) 20:25:41 437.568
PCSat 09 Feb 20:18:36 20:24:03 76° 244° (WSW) 20:29:26 145.827
ZACube-1 09 Feb 20:22:24 20:26:21 40° 72° (ENE) 20:30:16 437.345
CANX-2 09 Feb 20:24:11 20:27:34 23° 266° (W) 20:30:58 2200.000
Cosmos 2499 09 Feb 20:30:13 20:38:24 51° 76° (ENE) 20:45:56 435.465 / 435.565
AO-85 09 Feb 20:30:54 20:34:43 22° 251° (WSW) 20:38:18 145.980
FUNcube-1 09 Feb 20:31:29 20:35:32 49° 73° (ENE) 20:39:34 145.935
AIST 2 09 Feb 20:38:03 20:40:33 15° 317° (NW) 20:43:03 435.215
HO-68 09 Feb 20:39:20 20:45:32 32° 264° (W) 20:51:50 435.675
HUMSAT D 09 Feb 20:44:17 20:47:19 21° 68° (ENE) 20:50:22 437.325/437.525
RS-15 09 Feb 20:53:18 21:05:32 85° 240° (WSW) 21:17:53 29.354- 29.394
GONETS M04 09 Feb 20:55:27 21:03:57 56° 270° (W) 21:12:28
CINEMA 3 09 Feb 20:55:39 20:58:37 17° 267° (W) 21:01:31 145.822/145.860
CUBEBUG 2 09 Feb 21:02:54 21:06:50 33° 262° (W) 21:10:42 437.445
UWE-3 09 Feb 21:03:54 21:08:00 45° 261° (W) 21:12:03 435.000/436.395/437.385
Oscar 11 09 Feb 21:04:41 21:08:51 49° 261° (W) 21:13:03 145.826/435.025
COMPASS 1 09 Feb 21:08:55 21:11:22 15° 268° (W) 21:13:50 437.405
ISS 09 Feb 21:11:26 21:14:14 26° 25° (NNE) 21:17:02 145.825
ESTCUBE 1 09 Feb 21:14:03 21:15:28 11° 61° (ENE) 21:16:55 437.505/2401.250
DELFI C3 09 Feb 21:16:22 21:20:19 66° 260° (W) 21:24:17 145.870
DX 1 09 Feb 21:18:33 21:20:14 12° 62° (ENE) 21:21:56 434.975-435.025
ANTELSAT 09 Feb 21:22:58 21:24:56 13° 91° (E) 21:26:55 437.575/2403.000
PRISM 09 Feb 21:26:20 21:28:31 14° 296° (WNW) 21:30:41 437.425
TIGRISAT 09 Feb 21:29:33 21:31:57 14° 92° (E) 21:34:21 435.000
50 SAT 09 Feb 21:33:23 21:35:34 15° 66° (ENE) 21:37:46 437.505
AIST 1 09 Feb 21:54:34 21:58:55 77° 264° (W) 22:03:13
ZACube-1 09 Feb 22:00:14 22:02:50 16° 267° (W) 22:05:25 437.345
VELOX 1 09 Feb 22:09:39 22:13:46 37° 70° (ENE) 22:17:54 145.980
FUNcube-1 09 Feb 22:10:05 22:12:04 13° 269° (W) 22:14:02 145.935
UNISAT 6 09 Feb 22:12:41 22:16:53 46° 99° (E) 22:21:07 437.425
HUMSAT D 09 Feb 22:19:10 22:22:47 30° 264° (W) 22:26:25 437.325/437.525
Cosmos 2499 09 Feb 22:23:58 22:31:05 32° 276° (W) 22:37:46 435.465 / 435.565
AISAT 09 Feb 22:25:59 22:30:22 60° 74° (ENE) 22:34:48 437.250
POLYITAN 1 09 Feb 22:28:50 22:31:26 16° 93° (E) 22:34:01 437.675
QB50P2 09 Feb 22:29:23 22:32:07 17° 93° (E) 22:34:50 145.880/145.840
UKube-1 09 Feb 22:39:45 22:44:04 75° 76° (ENE) 22:48:26 .
CUBEBUG 1 09 Feb 22:46:05 22:50:31 78° 76° (ENE) 22:54:58 437.445
ESTCUBE 1 09 Feb 22:47:07 22:51:38 77° 257° (WSW) 22:56:12 437.505/2401.250
ISS 09 Feb 22:47:41 22:50:48 43° 222° (SW) 22:53:53 145.825
SPROUT 09 Feb 22:49:58 22:53:42 29° 69° (ENE) 22:57:26 437.525
DX 1 09 Feb 22:51:30 22:55:51 68° 258° (WSW) 23:00:15 434.975-435.025
ANTELSAT 09 Feb 22:57:44 23:01:58 55° 286° (WNW) 23:06:18 437.575/2403.000
POPSAT HIP 1 09 Feb 22:58:19 23:02:07 33° 97° (E) 23:05:55 437.405
TISAT 1 09 Feb 23:01:02 23:03:26 15° 65° (ENE) 23:05:51 437.305
NANOSAT C BR1 09 Feb 23:03:03 23:06:57 36° 98° (E) 23:10:49 145.865
DUCHIFAT 1 09 Feb 23:04:33 23:08:25 36° 98° (E) 23:12:17 145.980
TIGRISAT 09 Feb 23:04:43 23:08:54 49° 287° (WNW) 23:13:07 435.000
50 SAT 09 Feb 23:05:54 23:09:18 34° 262° (W) 23:12:44 437.505
RS-15 09 Feb 23:07:58 23:16:15 22° 261° (W) 23:24:36 29.354- 29.394
QB50P1 09 Feb 23:10:48 23:14:52 47° 99° (E) 23:18:54 145.935-145.965
PHONESAT 2.4 09 Feb 23:41:29 23:42:06 10° 146° (SE) 23:42:44 2401.200-2431.200
VELOX 1 09 Feb 23:47:05 23:50:22 20° 266° (W) 23:53:39 145.980
UNISAT 6 09 Feb 23:50:32 23:53:16 17° 295° (WNW) 23:56:01 437.425
POLYITAN 1 10 Feb 00:03:28 00:07:26 41° 288° (WNW) 00:11:23 437.675
QB50P2 10 Feb 00:04:09 00:08:06 39° 288° (WNW) 00:12:01 145.880/145.840
AISAT 10 Feb 00:05:18 00:07:14 13° 269° (W) 00:09:10 437.250
BUGSAT 1 10 Feb 00:06:34 00:10:38 81° 282° (WNW) 00:14:38 437.445
CUSAT 1 10 Feb 00:07:01 00:12:00 18° 81° (E) 00:16:59 437.405
Oscar 19 10 Feb 00:25:57 00:29:15 17° 92° (E) 00:32:31 437.125/150
SPROUT 10 Feb 00:26:12 00:29:40 23° 265° (W) 00:33:08 437.525
SWISSCUBE 10 Feb 00:32:43 00:36:53 31° 68° (ENE) 00:41:05 437.505
POPSAT HIP 1 10 Feb 00:34:36 00:37:43 20° 293° (WNW) 00:40:49 437.405
TISAT 1 10 Feb 00:34:37 00:38:43 48° 260° (W) 00:42:49 437.305
DANDE 10 Feb 00:39:23 00:44:28 19° 79° (E) 00:49:50 436.750
NANOSAT C BR1 10 Feb 00:39:31 00:42:26 19° 294° (WNW) 00:45:21 145.865
DUCHIFAT 1 10 Feb 00:40:58 00:43:53 19° 294° (WNW) 00:46:48 145.980
QB50P1 10 Feb 00:47:50 00:50:16 15° 295° (WNW) 00:52:40 145.935-145.965
Gurwin Techsat 1B 10 Feb 00:57:23 00:59:36 12° 89° (E) 01:01:48 435.225
BEESAT 3 10 Feb 01:00:11 01:03:17 21° 47° (NE) 01:06:21 437.485
ITUPSAT 1 10 Feb 01:08:52 01:13:35 64° 74° (ENE) 01:18:20 437.325
PHONESAT 2.4 10 Feb 01:15:43 01:18:49 41° 160° (SSE) 01:21:57 2401.200-2431.200
BEESAT 10 Feb 01:17:20 01:22:04 80° 75° (ENE) 01:26:52 436.000
KKS-1 10 Feb 01:23:24 01:25:23 13° 62° (ENE) 01:27:22 437.445
BEESAT 2 10 Feb 01:24:12 01:27:31 24° 48° (NE) 01:30:47 435.950
JAS-2 10 Feb 01:29:23 01:34:50 46° 98° (E) 01:39:51 435.910
ITAMSAT 1 10 Feb 01:35:02 01:37:55 15° 91° (E) 01:40:48 435.822/435.867
Cosmos 2491 10 Feb 01:45:03 01:53:34 52° 76° (ENE) 02:02:02 435.465 / 435.565
CUSAT 1 10 Feb 01:45:16 01:53:13 86° 98° (E) 02:01:19 437.405
Oscar 19 10 Feb 02:03:53 02:08:55 56° 288° (WNW) 02:13:54 437.125/150
SWISSCUBE 10 Feb 02:10:38 02:14:40 27° 264° (W) 02:18:44 437.505
DANDE 10 Feb 02:18:30 02:26:12 89° 94° (E) 02:34:46 436.750
AO-7 10 Feb 02:23:17 02:28:09 16° 90° (E) 02:32:59 29.400- 29.500
YUBILEINY 10 Feb 02:34:21 02:42:31 46° 88° (E) 02:50:45 435.215
Gurwin Techsat 1B 10 Feb 02:34:47 02:40:08 78° 286° (WNW) 02:45:26 435.225
BEESAT 3 10 Feb 02:37:30 02:41:08 36° 245° (WSW) 02:44:45 437.485
STARS 10 Feb 02:40:05 02:44:15 43° 71° (ENE) 02:48:26 437.465
ITUPSAT 1 10 Feb 02:49:39 02:51:51 13° 270° (W) 02:54:03 437.325
MOZHAYETS 4 10 Feb 02:50:59 02:55:12 39° 71° (ENE) 02:59:28
PHONESAT 2.4 10 Feb 02:52:42 02:55:59 87° 185° (S) 02:59:16 2401.200-2431.200
KKS-1 10 Feb 02:56:59 03:01:25 65° 258° (WSW) 03:05:52 437.445
BEESAT 10 Feb 03:00:09 03:00:26 10° 271° (W) 03:00:43 436.000
BEESAT 2 10 Feb 03:01:53 03:05:26 31° 245° (WSW) 03:08:56 435.950
ITAMSAT 1 10 Feb 03:12:38 03:17:50 66° 287° (WNW) 03:23:01 435.822/435.867
JAS-2 10 Feb 03:15:15 03:19:32 22° 298° (WNW) 03:23:34 435.910
AIST 2 10 Feb 03:19:19 03:23:14 39° 52° (NE) 03:27:05 435.215
CUSAT 1 10 Feb 03:30:28 03:36:24 22° 296° (WNW) 03:42:20 437.405
CUBESAT XI-V 10 Feb 03:34:29 03:36:27 13° 61° (ENE) 03:38:24 437.345
Cosmos 2491 10 Feb 03:42:28 03:50:00 34° 275° (W) 03:57:33 435.465 / 435.565
SO-50 10 Feb 04:03:05 04:07:09 27° 112° (ESE) 04:11:17 436.795
DANDE 10 Feb 04:04:25 04:10:18 22° 298° (WNW) 04:16:30 436.750
Cosmos 2504 10 Feb 04:05:15 04:12:54 38° 85° (E) 04:20:48 435.465 / 435.565
AO-7 10 Feb 04:13:36 04:21:59 86° 108° (ESE) 04:30:18 29.400- 29.500
HORYU 2 10 Feb 04:15:31 04:19:49 48° 100° (E) 04:24:07 437.375
STARS 10 Feb 04:18:00 04:20:50 17° 267° (W) 04:23:40 437.465
Gurwin Techsat 1B 10 Feb 04:18:07 04:19:11 11° 303° (WNW) 04:20:14 435.225
MOZHAYETS 4 10 Feb 04:29:12 04:32:31 20° 267° (W) 04:35:51
M-CUBED/EXP-1 PRIME 10 Feb 04:29:30 04:32:53 82° 108° (ESE) 04:36:29 437.505
PHONESAT 2.4 10 Feb 04:29:58 04:33:13 63° 193° (SSW) 04:36:28 2401.200-2431.200
YUBILEINY 10 Feb 04:31:18 04:39:22 39° 288° (WNW) 04:47:32 435.215
AUBIESAT-1 10 Feb 04:39:10 04:42:36 88° 95° (E) 04:46:15 437.475
AIST 2 10 Feb 04:58:29 05:01:27 19° 249° (WSW) 05:04:23 435.215
Cubesat XI-IV 10 Feb 05:06:53 05:09:28 13° 90° (E) 05:12:03 437.490
CUBESAT XI-V 10 Feb 05:08:31 05:13:11 74° 258° (WSW) 05:17:55 437.345
BRITE-PL 10 Feb 05:36:23 05:37:56 11° 87° (E) 05:39:28 437.365/2234.400
SO-50 10 Feb 05:42:52 05:47:29 40° 310° (NW) 05:52:09 436.795
LilacSat-2 10 Feb 05:43:17 05:46:15 22° 95° (E) 05:49:13 437.200
STRAND 1 10 Feb 05:52:58 05:57:46 43° 70° (ENE) 06:02:38 437.568
HORYU 2 10 Feb 05:53:12 05:56:01 17° 296° (WNW) 05:58:49 437.375
Cosmos 2504 10 Feb 05:57:48 06:06:01 49° 285° (WNW) 06:14:36 435.465 / 435.565
PHONESAT 2.4 10 Feb 06:07:45 06:10:08 19° 209° (SSW) 06:12:31 2401.200-2431.200
AO-7 10 Feb 06:07:45 06:13:46 23° 308° (NW) 06:19:46 29.400- 29.500
CUTE-I 10 Feb 06:30:51 06:36:16 84° 103° (ESE) 06:41:39 437.470
PRISM 10 Feb 06:38:46 06:42:34 35° 70° (ENE) 06:46:25 437.425
GOMX 1 10 Feb 06:39:21 06:43:03 26° 94° (E) 06:46:35 467.674
Cubesat XI-IV 10 Feb 06:44:41 06:50:05 75° 286° (WNW) 06:55:26 437.490
O/OREOS (USA 219) 10 Feb 06:47:09 06:49:49 16° 99° (E) 06:52:30 437.305
BRITE-PL 10 Feb 07:12:19 07:17:03 64° 286° (WNW) 07:21:24 437.365/2234.400
LilacSat-2 10 Feb 07:17:27 07:20:31 24° 290° (WNW) 07:23:36 437.200
CUTE 1.7 + AOD 2 10 Feb 07:24:28 07:27:14 16° 92° (E) 07:29:58 437.475
SEEDS 10 Feb 07:30:44 07:33:05 14° 91° (E) 07:35:25 437.485
STRAND 1 10 Feb 07:33:13 07:37:07 22° 266° (W) 07:41:03 437.568
AAUSAT CUBESAT 2 10 Feb 07:45:06 07:46:48 12° 90° (E) 07:48:28 437.432
DOVE 4 10 Feb 07:56:32 08:00:48 85° 283° (WNW) 08:04:56 437.250
GONETS M04 10 Feb 08:00:06 08:07:46 37° 85° (E) 08:15:28
HO-68 10 Feb 08:06:02 08:13:04 53° 101° (E) 08:20:02 435.675
CANX-2 10 Feb 08:08:25 08:12:41 59° 100° (E) 08:16:54 2200.000
CUTE-I 10 Feb 08:12:58 08:15:35 14° 301° (WNW) 08:18:11 437.470
PRISM 10 Feb 08:15:07 08:18:01 18° 266° (W) 08:20:57 437.425
GOMX 1 10 Feb 08:17:26 08:21:06 26° 292° (WNW) 08:24:37 467.674
ANTELSAT 10 Feb 08:22:46 08:24:14 12° 63° (ENE) 08:25:42 437.575/2403.000
O/OREOS (USA 219) 10 Feb 08:24:28 08:28:46 47° 296° (WNW) 08:33:10 437.305
Cubesat XI-IV 10 Feb 08:28:27 08:29:12 10° 304° (WNW) 08:29:57 437.490
TIGRISAT 10 Feb 08:28:59 08:30:58 13° 63° (ENE) 08:32:54 435.000
CINEMA 3 10 Feb 08:48:39 08:52:47 67° 285° (WNW) 08:56:55 145.822/145.860
COMPASS 1 10 Feb 08:50:02 08:54:17 86° 101° (E) 08:58:30 437.405
Oscar 11 10 Feb 08:52:19 08:56:08 29° 96° (E) 08:59:55 145.826/435.025
CUBEBUG 2 10 Feb 08:53:22 08:57:25 46° 99° (E) 09:01:31 437.445
UWE-3 10 Feb 08:53:36 08:57:25 33° 97° (E) 09:01:18 435.000/436.395/437.385
DELFI C3 10 Feb 08:55:46 08:58:21 16° 93° (E) 09:00:56 145.870
CUTE 1.7 + AOD 2 10 Feb 08:59:12 09:03:15 41° 288° (WNW) 09:07:17 437.475
AO-85 10 Feb 09:04:21 09:08:01 19° 108° (ESE) 09:11:46 145.980
SEEDS 10 Feb 09:04:56 09:09:02 47° 287° (WNW) 09:13:07 437.485
Cosmos 2499 10 Feb 09:04:59 09:13:00 43° 87° (E) 09:21:11 435.465 / 435.565
UNISAT 6 10 Feb 09:11:24 09:15:25 38° 71° (ENE) 09:19:23 437.425
RS-15 10 Feb 09:12:28 09:16:41 13° 94° (E) 09:20:55 29.354- 29.394
AAUSAT CUBESAT 2 10 Feb 09:18:30 09:22:37 54° 286° (WNW) 09:26:42 437.432
PCSat 10 Feb 09:19:37 09:22:20 14° 103° (ESE) 09:25:04 145.827
POLYITAN 1 10 Feb 09:22:23 09:24:15 13° 63° (ENE) 09:26:07 437.675
QB50P2 10 Feb 09:22:50 09:24:52 13° 64° (ENE) 09:26:53 145.880/145.840
CANX-2 10 Feb 09:46:05 09:48:02 13° 296° (WNW) 09:49:59 2200.000
ZACube-1 10 Feb 09:46:38 09:50:51 86° 284° (WNW) 09:55:09 437.345
POPSAT HIP 1 10 Feb 09:50:50 09:54:17 25° 68° (ENE) 09:57:44 437.405
HO-68 10 Feb 09:54:18 10:00:25 31° 299° (WNW) 10:06:32 435.675
NANOSAT C BR1 10 Feb 09:55:10 09:58:44 27° 69° (ENE) 10:02:17 145.865
FUNcube-1 10 Feb 09:55:32 09:59:44 72° 284° (WNW) 10:04:00 145.935
GONETS M04 10 Feb 09:56:03 10:04:19 48° 285° (WNW) 10:12:42
ANTELSAT 10 Feb 09:56:08 10:00:25 66° 258° (WSW) 10:04:41 437.575/2403.000
DUCHIFAT 1 10 Feb 09:56:27 09:59:59 26° 69° (ENE) 10:03:31 145.980
HUMSAT D 10 Feb 10:02:22 10:06:18 39° 98° (E) 10:10:15 437.325/437.525
TIGRISAT 10 Feb 10:02:55 10:07:11 58° 259° (W) 10:11:24 435.000
QB50P1 10 Feb 10:03:01 10:06:50 34° 71° (ENE) 10:10:40 145.935-145.965
